Location: Rounton
(54.4000°N, 1.3500°W)
Time: 04:07:50
(UTC+00:00)

S-56A Canister/Altair - Pass Details

Date: 09 December 2021
Orbit: 633 x 2499 km, 38.9° (Epoch: 17 January)

Event Time Altitude Azimuth Distance (km) Brightness Sun altitude
Rises 00:29:25 0° 246° (WSW) 5,311 - -57.9°
Reaches altitude 10° 00:33:56 10° 237° (WSW) 3,987 - -57.7°
Maximum altitude 00:41:42 27° 186° (S) 2,315 - -57.4°
Drops below altitude 10° 00:47:26 10° 131° (SE) 2,860 - -57.1°
Sets 00:50:06 0° 118° (ESE) 3,588 - -56.9°
